Back to catalog

STARLINK-35030

AliveCommunicationsSSO
NORAD 65448·PAYLOAD·🇺🇸 United States

Launched Sep 3, 2025 from Vandenberg Space Force Base

Loading…

Next Passes (next 24 hours)

TLE

FreshSource: CelesTrak SupGP

Epoch: Sep 14, 2026, 21:17 UTC

1 65448C 25194Q   26257.88729167  .00051937  00000+0  16124-2 0  2575
2 65448  97.2841 107.5390 0001715  91.8251 245.0936 15.33408672    14

Track STARLINK-35030 in real time with AllMySat

Download on the App Store